Temperature
11 11 10 9 9 9 8 8 7 7 7 6 6 6 5 5 5 5 5 4 4 4 4 4 4 3 3 3 3 2 2 2 1 1 1 1 1 1 1 1 1 1 1
10 9 9 8 8 7 7 7 6 6 6 6 5 5 5 5 4 4 4 4 4 4 3 3 3 3 2 2 2 1 1 1 1 1 1 1 1 1 1 1 1 1 1
9 8 8 7 7 6 6 6 6 5 5 5 5 5 4 4 4 4 4 3 3 3 3 2 2 2 1 1 1 1 1 1 1 0 0 1 1 1 1 1 1 1 1
7 7 7 6 6 6 5 5 5 5 5 4 4 4 4 4 3 3 3 2 2 2 2 1 1 1 1 1 0 0 0 0 0 0 0 0 0 1 0 0 0 1 1
6 6 6 5 5 5 5 4 4 4 4 4 4 4 3 3 2 2 2 1 1 1 1 1 1 1 0 0 0 0 0 0 0 0 0 0 0 0 0 0 0 0 0
6 5 5 5 4 4 4 4 4 4 4 3 3 2 2 2 1 1 1 1 1 1 1 1 0 0 0 0 0 0 0 0 0 0 0 0 0 0 0 0 0 0 0
5 4 4 4 4 4 4 3 3 3 3 2 2 1 1 1 1 0 0 0 0 0 0 0 0 0 0 0 0 0 0 0 0 0 0 0 0 0 0 0 0 0 0
4 4 4 3 3 3 3 3 2 2 2 1 1 1 0 0 0 0 0 0 0 0 -0 -0 -0 0 0 -0 0 0 0 0 0 0 0 0 0 0 0 0 0 0 0
3 3 3 3 3 3 2 2 2 1 1 1 0 0 0 -0 -0 -0 -0 0 0 0 0 -0 -0 0 0 0 0 0 0 0 0 0 0 0 0 0 0 0 0 -0 0
3 3 3 3 2 2 2 1 1 1 0 0 0 -0 -0 -0 -0 -1 -0 -0 -0 0 0 0 0 -0 -0 -0 0 -0 -0 0 0 0 0 0 -0 -0 -0 -0 -0 -0 -0
3 3 2 2 2 2 1 1 1 0 0 -0 -0 -0 -1 -1 -1 -1 -1 -1 -1 -0 -0 0 0 -0 -0 -0 -0 -0 -0 -0 -0 -0 -0 -0 -0 -0 -0 -0 -0 -0 -0
3 2 2 2 2 1 1 1 0 0 -0 -0 -1 -1 -1 -1 -1 -1 -1 -1 -1 -0 -0 -0 -0 -0 -0 -0 -0 -0 -0 -0 -0 -0 -0 -0 -0 -0 -0 -0 -0 -0 -0
3 2 2 2 2 1 1 1 0 -0 -0 -1 -1 -1 -1 -1 -1 -1 -1 -1 -1 -0 -0 -0 -0 -0 -0 0 -0 -0 -0 -0 -0 -0 -0 -0 -0 -0 -0 -0 -0 -0 -0
3 2 2 2 1 1 1 0 -0 -0 -1 -1 -1 -1 -1 -1 -1 -1 -1 -1 -1 -1 -0 -0 -0 -0 -0 -0 -0 -0 -0 -0 -0 -0 -0 -0 -0 -0 -0 -0 -0 -0 -0
3 2 2 2 1 1 1 0 -0 -1 -1 -1 -2 -2 -2 -2 -2 -2 -1 -1 -1 -1 -0 -0 -0 -0 0 0 0 0 0 0 -0 -0 -0 -0 -1 -1 -1 -0 -0 -0 -0
3 2 2 2 1 1 1 -0 -1 -1 -1 -2 -2 -2 -2 -2 -2 -2 -1 -1 -1 -1 -1 -0 -0 -0 -0 -0 0 0 0 0 0 -0 -0 -0 -1 -1 -1 -1 -1 -1 -0
3 2 2 2 1 1 0 -0 -1 -1 -1 -2 -2 -2 -2 -2 -2 -2 -1 -1 -1 -1 -1 -1 -0 -0 -0 0 0 0 0 0 0 0 -0 -0 -1 -1 -1 -1 -1 -1 -1
3 3 2 2 1 1 0 -0 -1 -1 -1 -1 -2 -2 -2 -2 -2 -2 -2 -1 -1 -1 -1 -1 -1 -0 -0 0 0 0 1 1 0 0 0 -0 -0 -1 -1 -1 -1 -1 -1
3 3 2 2 1 1 0 -0 -1 -1 -1 -1 -1 -2 -2 -2 -2 -2 -2 -1 -1 -1 -1 -1 -1 -0 -0 0 0 1 1 1 1 1 0 0 -0 -0 -1 -1 -1 -1 -1
3 3 2 2 1 1 0 -0 -0 -1 -1 -1 -1 -1 -2 -2 -2 -2 -2 -2 -1 -1 -1 -1 -0 -0 -0 0 1 1 1 1 1 1 1 1 0 0 -0 -1 -1 -1 -1
3 3 2 2 1 1 0 -0 -0 -1 -1 -1 -1 -2 -2 -2 -2 -2 -1 -1 -1 -1 -1 -1 -0 -0 0 0 1 1 1 1 2 2 1 1 1 1 0 -0 -0 -1 -1
3 3 2 2 1 1 0 -0 -0 -1 -1 -1 -1 -1 -1 -1 -1 -1 -1 -1 -1 -1 -1 -1 -0 -0 0 0 1 1 1 2 2 2 2 2 2 1 1 1 0 -0 -1
3 3 2 2 1 1 0 -0 -0 -1 -1 -1 -1 -1 -1 -1 -1 -1 -1 -1 -1 -1 -1 -0 -0 -0 0 1 1 1 2 2 2 2 2 2 2 2 2 1 1 0 -0
3 2 2 1 1 1 0 -0 -1 -1 -1 -1 -1 -1 -1 -1 -1 -1 -1 -1 -1 -1 -0 -0 -0 0 0 1 1 1 2 2 2 2 3 3 2 2 2 2 1 1 1
2 2 2 1 1 0 0 -0 -1 -1 -1 -1 -1 -1 -1 -1 -1 -1 -1 -1 -1 -1 -0 -0 0 0 1 1 1 2 2 2 2 3 3 3 3 3 2 2 2 2 2
2 2 1 1 1 0 -0 -0 -1 -1 -1 -1 -1 -1 -1 -1 -1 -1 -1 -1 -1 -0 -0 0 0 1 1 1 2 2 2 2 3 3 3 3 3 3 3 3 3 2 2
Wind_Speed
10 10 10 9 9 9 8 8 7 6 5 4 2 2 2 3 3 4 3 4 4 5 5 5 6 6 5 5 5 5 6 6 12 9 5 6 7 10 13 16 18 17 18
10 10 10 9 9 9 8 7 6 6 5 4 4 4 5 7 7 6 6 6 5 5 6 6 7 7 7 7 6 7 7 7 9 14 9 6 9 10 10 11 13 16 15
10 10 10 9 8 8 7 7 6 6 5 5 6 6 7 6 6 5 5 5 5 6 6 7 8 8 9 8 8 8 8 9 8 10 12 8 8 9 10 11 13 10 15
10 10 9 8 8 7 6 6 6 6 6 6 6 6 6 5 4 4 4 4 6 7 7 8 8 9 10 10 9 9 9 9 9 10 11 10 10 9 8 10 11 9 11
10 10 8 7 7 6 6 6 5 5 5 5 6 5 3 2 2 2 4 5 7 8 9 9 9 13 15 12 10 9 9 9 10 10 11 11 10 8 9 8 11 10 10
9 8 6 6 6 6 5 4 5 6 6 6 5 3 2 1 2 4 6 6 7 8 10 10 11 12 14 17 19 18 17 13 11 11 10 11 11 10 9 9 9 10 7
8 6 5 5 5 5 6 7 6 6 5 5 4 3 2 3 4 6 10 8 8 8 9 10 10 11 13 10 14 18 17 18 17 12 12 11 11 9 9 10 10 10 10
6 4 4 6 7 7 7 6 5 4 4 3 3 3 3 4 4 7 11 8 8 9 9 10 10 11 10 11 12 12 12 12 13 10 9 11 10 9 9 9 9 9 8
5 5 5 7 7 6 6 5 3 3 3 3 3 4 4 4 6 8 10 7 7 10 10 10 10 10 13 14 12 11 12 11 12 12 12 11 12 11 9 6 6 7 6
6 6 6 6 6 5 4 3 2 3 3 4 5 5 5 4 6 9 11 6 7 9 9 9 11 12 15 15 10 9 11 10 10 11 10 9 7 7 8 5 5 6 5
6 6 6 5 5 4 3 3 3 4 5 5 5 5 5 5 7 11 13 7 7 9 9 8 9 14 16 15 11 7 10 11 9 8 7 6 6 5 5 5 4 4 4
6 6 5 4 3 4 4 4 4 5 5 5 5 6 5 6 7 11 15 13 12 8 8 8 9 15 15 14 10 10 13 10 6 6 5 5 5 5 5 5 5 4 4
4 4 3 3 3 4 4 4 4 4 4 4 4 5 6 6 7 12 14 16 16 8 7 12 14 14 13 9 11 13 9 6 6 5 5 5 5 6 5 5 5 4 4
3 3 2 2 2 3 3 3 3 2 3 3 4 5 6 6 7 8 9 9 11 10 8 10 12 11 10 9 9 8 6 6 5 5 6 5 5 5 5 4 4 5 4
2 2 2 3 3 3 2 2 3 2 2 0 2 4 6 6 9 13 9 7 7 8 8 5 5 6 8 8 7 7 6 6 6 6 5 5 5 5 5 5 5 4 5
3 2 2 3 2 2 2 1 1 2 3 2 3 5 5 7 11 13 14 13 13 14 7 5 6 6 7 7 8 7 6 6 6 5 5 5 6 6 6 5 5 6 7
3 2 2 3 3 2 2 1 1 3 4 5 7 9 9 10 12 14 15 13 11 11 6 6 6 7 7 8 7 7 7 7 6 5 5 5 5 6 5 6 7 7 7
3 2 3 3 3 3 2 2 1 1 3 4 5 8 11 12 11 13 14 10 7 8 6 7 7 7 7 7 8 7 7 7 7 6 5 5 5 5 6 7 8 8 8
2 2 2 3 3 3 3 3 2 2 2 3 4 6 9 10 9 10 10 6 6 7 7 7 7 7 7 7 8 8 8 7 7 6 5 5 4 5 6 6 7 10 9
1 3 4 3 3 3 3 2 2 2 2 3 4 5 6 6 5 7 6 6 6 6 7 7 7 7 7 8 8 8 8 8 8 6 5 4 4 4 5 6 6 7 8
2 3 4 4 3 3 2 2 1 1 1 2 3 5 7 5 5 6 6 6 6 6 7 7 7 7 8 8 8 9 9 8 7 7 5 4 3 3 3 4 5 7 7
4 4 3 3 3 3 2 2 2 2 1 2 3 5 8 6 5 6 6 6 6 5 5 6 6 6 7 7 8 8 8 8 8 8 6 4 2 2 3 4 5 5 7
5 5 4 3 3 4 4 3 2 2 2 1 2 4 5 5 6 6 6 6 6 6 7 7 6 6 9 10 9 6 7 7 7 7 6 4 3 3 3 4 5 6 6
6 6 5 4 4 4 3 3 3 3 3 3 3 4 5 5 6 7 7 6 5 7 9 9 8 9 12 13 12 12 12 12 10 7 5 4 5 5 5 5 6 7 7
6 6 5 4 4 4 3 3 3 3 3 4 4 4 5 5 6 7 7 6 7 7 10 12 12 12 14 15 15 16 17 16 14 12 9 5 6 6 6 7 6 6 6
5 5 5 4 4 4 4 4 4 4 4 4 4 4 5 6 7 7 7 7 7 8 10 12 15 16 17 16 18 18 18 17 16 15 11 6 6 6 6 5 6 6 6
Wind_Direction
93 95 97 96 98 97 97 99 100 98 96 87 79 63 39 21 16 30 24 17 10 355 349 338 317 306 296 291 283 273 267 265 283 288 262 268 271 275 285 285 286 282 282
98 94 90 90 91 93 93 91 88 81 69 66 60 59 62 65 61 55 35 22 10 350 335 326 314 312 302 291 282 274 271 263 272 287 287 276 268 269 273 277 286 286 281
94 91 86 83 82 81 77 71 67 64 56 52 60 75 86 83 69 53 33 8 348 329 317 309 302 300 296 291 284 278 275 277 267 277 286 279 274 275 279 281 279 276 280
88 85 79 75 74 72 68 60 56 58 61 64 77 91 98 93 76 45 15 351 332 318 307 298 293 290 286 286 288 280 280 279 276 276 281 282 279 275 271 276 282 276 277
85 80 75 69 62 54 51 54 55 55 62 70 86 92 93 99 67 31 352 337 324 315 310 303 299 306 308 309 308 300 294 288 285 282 283 284 283 281 276 273 279 281 276
82 78 68 59 55 55 52 52 54 53 58 64 69 74 43 6 324 338 342 323 314 309 307 306 308 306 313 317 315 312 307 300 295 289 287 285 286 282 281 280 281 284 283
74 69 63 62 65 62 68 64 60 59 63 62 54 39 352 309 311 332 339 331 313 305 302 305 312 314 315 310 313 314 309 304 299 294 290 289 288 288 288 286 283 284 283
72 65 71 80 83 77 72 63 56 54 55 46 22 3 346 331 337 344 340 332 312 306 304 301 302 305 310 314 314 309 306 303 300 298 288 288 288 289 287 288 290 288 279
76 77 90 99 97 84 71 58 50 53 38 17 8 8 7 352 357 347 343 323 313 311 308 307 307 307 308 314 315 312 311 309 312 308 299 294 293 295 297 296 294 296 297
88 87 97 107 104 95 84 61 39 50 33 23 19 14 17 1 344 342 344 324 318 318 314 314 314 313 314 317 317 312 314 315 318 319 318 316 312 308 315 310 311 309 306
101 94 97 111 112 105 76 51 45 46 37 26 18 5 360 350 340 339 341 335 321 317 316 318 318 319 321 322 321 309 307 310 312 314 316 318 319 319 319 318 316 313 312
110 104 101 107 108 97 83 58 48 49 39 19 5 353 340 335 337 335 336 334 330 316 312 315 317 321 326 328 329 326 326 326 319 322 327 329 329 329 325 320 314 313 312
120 120 114 99 88 96 100 84 57 45 38 10 357 344 331 329 331 335 334 331 333 330 314 321 327 332 335 333 331 336 339 336 330 331 331 327 324 325 328 326 322 316 311
135 149 149 126 102 93 100 105 94 62 34 8 353 339 328 327 333 338 333 329 333 335 329 327 330 336 344 340 336 338 338 335 333 331 331 325 327 341 347 343 339 343 340
128 150 144 139 138 133 125 146 144 177 179 101 325 317 322 327 326 328 333 332 336 333 328 333 347 346 350 346 343 342 341 343 343 340 341 347 356 1 0 354 358 3 12
106 112 133 143 146 150 135 50 250 211 227 262 311 327 311 315 330 342 348 349 350 351 356 349 349 349 348 347 345 343 339 344 343 349 355 3 10 11 13 11 14 22 26
120 133 135 141 144 154 154 146 316 319 307 310 320 338 347 347 353 354 352 346 353 3 7 353 351 349 347 345 346 346 348 347 350 359 7 12 19 21 23 26 27 32 36
114 124 137 139 143 135 130 127 118 62 357 339 331 340 351 353 354 356 353 355 1 5 359 353 349 347 348 349 349 348 349 351 357 3 8 15 25 29 33 36 37 39 42
107 111 126 130 132 128 121 104 87 68 29 356 345 345 346 345 345 354 359 5 356 354 353 351 347 347 350 351 350 351 353 356 359 5 11 16 25 36 43 42 43 40 46
128 136 137 129 124 120 114 108 87 59 33 9 358 349 343 350 359 356 357 353 353 353 350 348 348 350 352 351 351 353 355 358 0 4 4 11 22 42 53 52 49 52 53
162 149 133 121 130 143 141 133 118 95 46 7 346 348 358 355 353 351 351 350 349 347 346 346 348 351 351 349 350 353 354 354 355 356 356 357 11 37 56 65 64 64 65
134 132 124 123 121 123 128 120 110 93 57 30 353 354 1 3 355 353 350 348 345 343 341 342 344 344 343 344 346 348 348 348 350 350 349 353 17 45 60 74 77 73 73
112 114 108 106 107 100 89 82 89 83 66 41 14 6 3 2 359 358 354 351 349 349 351 350 348 348 347 345 344 339 336 331 324 323 336 359 33 54 68 75 85 89 85
105 108 105 102 97 95 92 81 74 72 68 54 34 18 10 5 3 1 359 354 354 357 0 0 359 354 351 352 351 349 343 337 334 333 345 22 43 55 68 75 82 93 94
101 101 99 98 100 100 91 79 71 65 59 52 40 25 14 11 9 6 4 1 3 8 9 9 6 1 355 353 355 352 353 1 9 13 21 35 51 57 66 75 84 94 100
98 101 98 93 90 91 91 86 76 70 61 53 45 35 24 18 15 13 11 12 12 11 11 8 4 4 3 360 356 360 7 14 20 28 39 44 52 57 63 68 79 86 97
Height
1506 1507 1509 1510 1511 1512 1514 1515 1516 1517 1518 1519 1520 1520 1519 1519 1518 1517 1515 1514 1512 1509 1507 1504 1501 1498 1495 1492 1489 1486 1483 1479 1471 1466 1466 1464 1461 1458 1454 1452 1448 1445 1442
1507 1508 1510 1511 1512 1513 1514 1515 1516 1517 1517 1518 1518 1518 1517 1516 1515 1514 1512 1510 1507 1504 1501 1498 1495 1492 1488 1485 1482 1479 1476 1473 1468 1460 1457 1456 1453 1450 1447 1443 1440 1437 1434
1508 1509 1511 1512 1513 1514 1514 1515 1516 1516 1516 1516 1516 1516 1515 1514 1512 1511 1509 1506 1503 1499 1496 1492 1489 1485 1482 1479 1475 1472 1469 1466 1462 1456 1450 1448 1445 1443 1439 1435 1433 1429 1427
1509 1511 1512 1513 1514 1514 1515 1515 1516 1516 1516 1515 1514 1514 1512 1511 1509 1507 1504 1501 1498 1495 1491 1488 1484 1480 1477 1473 1469 1466 1463 1459 1455 1450 1445 1441 1438 1435 1432 1428 1424 1422 1419
1510 1512 1513 1514 1515 1515 1515 1515 1515 1515 1515 1514 1512 1511 1510 1508 1506 1503 1501 1498 1494 1491 1487 1484 1480 1476 1472 1469 1465 1461 1457 1452 1448 1443 1439 1435 1431 1428 1425 1422 1418 1414 1411
1512 1513 1514 1515 1515 1516 1516 1516 1515 1514 1513 1512 1511 1509 1508 1506 1503 1501 1498 1495 1491 1487 1483 1479 1475 1471 1468 1464 1460 1456 1452 1447 1442 1438 1433 1429 1425 1423 1419 1416 1412 1408 1404
1513 1514 1515 1516 1516 1516 1516 1516 1515 1514 1512 1511 1509 1508 1506 1503 1501 1498 1495 1492 1488 1484 1480 1475 1471 1467 1464 1459 1455 1451 1447 1442 1438 1433 1428 1424 1420 1417 1414 1410 1407 1403 1399
1515 1516 1517 1517 1517 1517 1516 1515 1514 1513 1511 1510 1508 1506 1503 1501 1499 1496 1493 1490 1486 1481 1477 1472 1468 1464 1460 1456 1451 1446 1442 1438 1433 1429 1424 1420 1416 1413 1410 1406 1402 1398 1394
1517 1518 1518 1518 1518 1517 1516 1515 1513 1512 1510 1509 1507 1504 1502 1499 1497 1494 1490 1486 1482 1478 1474 1470 1466 1462 1458 1453 1448 1443 1439 1434 1430 1425 1421 1417 1413 1410 1406 1402 1398 1395 1390
1519 1519 1519 1519 1518 1517 1516 1515 1513 1512 1510 1508 1505 1503 1500 1498 1495 1492 1488 1484 1479 1475 1471 1468 1464 1459 1455 1451 1446 1441 1436 1432 1427 1422 1419 1415 1411 1407 1404 1400 1396 1392 1389
1520 1520 1520 1520 1519 1518 1517 1515 1513 1511 1509 1507 1504 1502 1499 1496 1493 1490 1486 1482 1477 1473 1469 1465 1462 1458 1453 1449 1445 1440 1435 1431 1426 1421 1417 1413 1409 1405 1402 1398 1395 1391 1388
1522 1521 1521 1520 1519 1518 1517 1515 1513 1511 1508 1506 1503 1500 1498 1495 1492 1488 1484 1480 1476 1472 1468 1464 1460 1456 1452 1448 1444 1439 1435 1430 1425 1421 1417 1413 1409 1405 1401 1398 1394 1391 1387
1523 1523 1522 1521 1520 1519 1517 1515 1513 1510 1507 1505 1502 1499 1496 1494 1490 1486 1482 1479 1475 1471 1467 1464 1460 1456 1452 1448 1443 1439 1434 1430 1425 1421 1417 1413 1409 1405 1401 1398 1395 1392 1388
1524 1523 1523 1522 1520 1519 1517 1515 1513 1510 1507 1504 1501 1498 1495 1492 1488 1484 1481 1477 1474 1470 1467 1463 1460 1456 1452 1448 1444 1440 1435 1431 1426 1422 1418 1414 1410 1406 1402 1399 1396 1393 1390
1525 1524 1523 1522 1520 1519 1517 1515 1512 1510 1507 1504 1501 1498 1494 1491 1487 1484 1480 1476 1473 1470 1467 1463 1460 1456 1453 1449 1445 1441 1436 1432 1428 1423 1419 1415 1411 1407 1404 1401 1398 1395 1392
1525 1524 1523 1522 1520 1518 1516 1514 1511 1509 1507 1504 1501 1498 1494 1491 1487 1484 1480 1477 1473 1470 1467 1464 1461 1457 1454 1450 1446 1442 1438 1434 1430 1426 1421 1417 1413 1410 1407 1404 1401 1398 1395
1526 1524 1523 1522 1520 1518 1516 1514 1511 1509 1507 1504 1501 1497 1494 1491 1487 1483 1480 1477 1474 1471 1468 1465 1462 1459 1456 1452 1449 1445 1441 1437 1433 1429 1425 1421 1417 1414 1411 1408 1405 1402 1400
1526 1525 1523 1522 1520 1518 1516 1514 1512 1509 1507 1504 1501 1497 1494 1491 1487 1484 1481 1478 1475 1472 1469 1467 1464 1461 1458 1455 1451 1447 1444 1440 1437 1433 1429 1426 1422 1419 1416 1413 1410 1408 1405
1526 1525 1523 1522 1520 1518 1516 1514 1512 1510 1508 1505 1502 1498 1495 1491 1488 1485 1482 1479 1477 1474 1471 1469 1466 1463 1460 1457 1454 1451 1448 1444 1441 1438 1434 1431 1428 1425 1422 1419 1416 1414 1411
1526 1525 1524 1522 1520 1519 1517 1515 1513 1511 1509 1506 1503 1499 1496 1493 1489 1487 1484 1481 1479 1476 1474 1471 1469 1466 1463 1460 1457 1454 1452 1449 1445 1442 1439 1436 1433 1431 1428 1425 1423 1420 1418
1526 1525 1524 1522 1521 1519 1518 1516 1514 1512 1510 1507 1504 1501 1498 1494 1491 1489 1486 1483 1481 1478 1476 1474 1471 1469 1466 1464 1461 1458 1456 1453 1450 1447 1444 1441 1439 1436 1434 1431 1429 1427 1424
1526 1525 1524 1523 1521 1520 1518 1517 1515 1513 1511 1508 1506 1503 1500 1497 1494 1491 1488 1486 1483 1481 1479 1477 1474 1472 1470 1467 1465 1463 1460 1457 1455 1452 1449 1447 1444 1442 1440 1438 1435 1433 1431
1526 1525 1524 1523 1522 1521 1520 1518 1516 1515 1512 1510 1508 1505 1502 1499 1496 1493 1491 1488 1486 1483 1482 1480 1477 1475 1473 1471 1469 1467 1464 1462 1459 1457 1454 1452 1450 1448 1446 1444 1442 1441 1439
1527 1526 1525 1524 1523 1522 1521 1519 1518 1516 1514 1512 1509 1507 1504 1501 1499 1496 1493 1491 1489 1487 1485 1483 1481 1479 1477 1475 1473 1471 1469 1467 1464 1462 1460 1458 1456 1454 1452 1451 1449 1448 1447
1528 1527 1526 1525 1524 1523 1522 1521 1519 1518 1516 1514 1511 1509 1507 1504 1502 1499 1497 1494 1492 1490 1488 1486 1484 1482 1480 1478 1477 1475 1473 1471 1469 1468 1466 1464 1462 1460 1459 1458 1457 1456 1455
1530 1529 1528 1527 1526 1525 1523 1522 1521 1519 1517 1515 1513 1511 1509 1507 1505 1503 1500 1498 1496 1494 1492 1490 1488 1486 1484 1482 1481 1479 1477 1476 1474 1473 1471 1470 1468 1467 1466 1465 1464 1463 1462